Location: Middle Maitland River
(43.8600°N, 81.3188°W)
Time: 19:10:23
(UTC+00:00)

Daily predictions for brighter satellites

Satellite Brightness Start Highest point End
(mag) Time Altitude Azimuth Time Altitude Azimuth Time Altitude Azimuth
Orbus 7S? 4.1 12:00:27 10° NNW 12:02:48 28° NE 12:05:27 10° E
Cosmos 405 Rocket 2.2 12:00:45 10° S 12:04:00 87° W 12:07:17 10° N
Cosmos 158 Rocket 4.3 12:00:03 10° SSW 12:05:22 75° ESE 12:10:39 10° NNE
Cosmos 2360 Rocket 2.4 12:00:25 10° NNW 12:06:04 76° ENE 12:11:41 10° SSE
SAR-Lupe-1 4.3 12:02:33 10° NNE 12:06:10 75° ESE 12:09:45 10° S
SJ-12 3.7 12:06:38 10° NNE 12:10:27 85° WNW 12:14:14 10° SSW
BREEZE M DEB (TANK) 2.0 12:08:32 10° WSW 12:10:53 81° SSE 12:15:37 10° ENE
COSMO-SKYMED 1 4.2 12:08:51 10° WSW 12:10:59 14° W 12:13:07 10° WNW
Cosmos-2242 3.5 12:07:25 10° NNW 12:11:20 37° W 12:15:12 10° SSW
MOS 1 Rocket 3.9 12:06:08 10° NNE 12:11:32 79° ESE 12:16:51 10° S
Meteor 2-6 Rocket 4.4 12:05:37 10° NNW 12:11:36 84° W 12:17:32 10° S
Cosmos 2084 4.3 22:15:52 10° WSW 22:19:55 45° NW 22:23:56 10° NNE
CZ-4C R/B 3.7 22:14:34 10° NNW 22:20:18 29° NE 22:27:10 10° E
CZ-2D R/B 4.0 22:18:18 10° ESE 22:20:42 20° ENE 22:23:06 10° NNE
Cosmos 1484 Rocket 2.6 22:18:59 10° SSE 22:22:30 86° WSW 22:26:02 10° NNW
NOSS 2-2 (D) 3.3 22:20:41 10° SSW 22:24:10 45° ESE 22:27:07 10° NE
CBERS-1 4.0 22:19:21 10° SSE 22:24:27 85° ENE 22:29:36 10° NNW
Meteor 1-27 4.3 22:20:39 10° S 22:26:29 85° E 22:32:18 10° NNE
Cosmos 44 4.0 22:23:04 10° NW 22:28:19 67° WSW 22:33:37 10° SSE
USA 215 4.4 22:24:17 10° ENE 22:29:39 28° N 22:35:02 10° NW
NOSS 2-2 (E) 3.4 22:27:46 10° SSW 22:31:13 42° ESE 22:34:04 11° NE
Cosmos 1733 3.0 22:30:01 10° NNE 22:31:29 18° ENE 22:32:57 10° SE
Cosmos 2297 Rocket 2.9 22:26:47 10° N 22:31:51 32° NE 22:36:52 10° ESE
Thor Agena Rocket 3.5 22:27:53 10° SSE 22:33:06 75° ENE 22:38:18 10° N
Cosmos 1743 3.4 22:30:42 10° NNE 22:33:23 23° ENE 22:36:02 10° SE
Cosmos 1315 Rocket 3.2 22:32:14 10° SSW 22:36:01 64° WNW 22:39:51 10° N
SAR-Lupe-4 4.0 22:32:49 10° SE 22:36:07 38° ENE 22:39:27 10° N
Cosmos 1656 3.9 22:30:52 10° S 22:36:17 55° ESE 22:41:49 10° NNE
Meteor 1-28 Rocket 3.4 22:34:56 10° N 22:38:15 61° WNW 22:41:32 10° SSW
ATLAS CENTAUR R/B 2.0 22:38:31 10° N 22:41:06 21° NE 22:43:06 13° E
Lacrosse 5 rocket 2.2 22:38:20 10° WSW 22:41:49 35° NW 22:45:15 10° NE
SAR-Lupe-1 4.5 22:39:20 10° SE 22:42:42 39° ENE 22:46:06 10° N
BREEZE-M DEB (TANK) 3.7 22:39:58 10° WNW 22:42:45 41° N 22:48:51 13° ENE
Cosmos 1356 Rocket 4.0 22:39:31 10° SSW 22:43:27 57° WNW 22:47:29 10° N
Cosmos 1758 Rocket 3.6 22:39:14 10° N 22:43:29 54° E 22:47:40 10° SSE
Cosmos 2098 Rocket 3.1 22:40:28 10° SSE 22:44:02 48° E 22:48:16 10° NNE
SL-16 R/B 3.1 22:38:22 10° N 22:44:30 62° WNW 22:50:35 10° SSW
Cosmos 2228 3.4 22:42:25 10° SSW 22:46:36 66° W 22:50:51 10° N
Cosmos 2266 Rocket 4.3 22:42:20 10° N 22:48:09 42° ENE 22:53:52 10° SE
AQUARIUS 4.3 22:45:07 10° SE 22:49:19 46° ENE 22:53:33 10° N
SMAP 3.0 22:45:31 10° SSE 22:50:09 85° ENE 22:54:51 10° NNW
Cosmos 1782 2.4 22:47:42 10° S 22:51:17 73° E 22:54:53 10° NNE
SJ-12 3.7 22:48:52 10° SSE 22:52:33 56° ENE 22:56:17 10° N
Cosmos 1607 4.3 22:48:46 10° NNW 22:54:40 42° NE 23:00:35 10° ESE
Landsat 7 3.7 22:51:56 10° SSE 22:56:34 75° ENE 23:01:14 10° N
Cosmos 1933 4.2 22:54:12 10° SSE 22:57:24 26° E 22:59:22 17° NE
Cosmos 1980 Rocket 4.0 22:56:06 10° ESE 22:57:54 12° E 22:57:54 12° E
ARIANE 6 FM1 Upper Stage 4.4 22:55:12 10° NW 22:58:49 34° WSW 23:02:30 10° S
IRIDIUM 114 4.3 22:57:34 10° N 23:02:45 60° E 23:07:53 10° SSE
NOSS 3-2 (C) 3.3 22:59:38 10° SSW 23:04:20 49° ESE 23:08:18 18° NE
IRS-P3 4.1 23:00:53 10° SSE 23:06:08 65° ENE 23:11:24 10° N
NOSS 3-2 (A) 3.4 23:01:44 10° SW 23:06:39 64° NW 23:12:06 12° NNE
Cosmos 1626 Rocket 3.9 23:03:53 10° NNW 23:08:12 67° W 23:12:27 10° S
UNK 4.4 23:06:28 10° N 23:10:57 55° WNW 23:15:24 10° SSW
IRIDIUM 103 4.2 23:06:42 10° N 23:11:56 73° E 23:17:08 10° S
Cosmos 2360 4.2 23:07:32 10° SSW 23:13:14 81° ESE 23:18:36 12° NNE
Cosmos 1867 4.3 23:08:44 10° NNW 23:13:37 32° NE 23:16:02 23° E
Cosmos 1777 Rocket 4.0 23:08:30 10° S 23:13:42 67° ESE 23:18:24 13° NNE
Cosmos 1606 Rocket 3.9 23:10:17 10° SSE 23:14:24 41° E 23:17:27 17° NNE
Cosmos 2263 Rocket 3.5 23:10:37 10° N 23:14:42 20° NE 23:14:50 20° NE
SAR-Lupe-3 3.5 23:14:43 39° NNE 23:15:29 74° ESE 23:18:00 10° S
Cosmos 1570 Rocket 4.5 23:10:45 10° NNW 23:16:03 66° WSW 23:21:18 10° S
Cosmos 405 Rocket 3.9 23:13:44 10° NNW 23:16:46 36° W 23:19:45 10° SSW
MOS 1 Rocket 3.3 23:14:34 10° SSE 23:19:18 87° ENE 23:24:23 10° NNW
Resurs 1-3 4.0 23:17:16 10° SE 23:21:12 36° ENE 23:25:09 10° N
Okean 1-7 Rocket 3.5 23:16:52 10° N 23:21:13 58° E 23:25:30 10° SSE
Cosmos 2227 Rocket 2.7 23:17:36 10° N 23:22:44 35° NE 23:25:15 24° E
Cosmos 2151 2.9 23:22:32 10° N 23:26:42 85° W 23:30:51 10° S
Cosmos 1486 Rocket 4.2 23:22:01 10° SSW 23:27:12 73° WNW 23:32:18 11° NNE
IRAS Rocket 4.4 23:23:54 10° SE 23:29:05 46° ENE 23:34:18 10° N
IRIDIUM 106 4.4 23:25:01 10° N 23:30:15 78° W 23:35:27 10° S
Cosmos 1655 Rocket 4.1 23:29:07 10° N 23:35:13 52° ENE 23:41:14 10° SSE
SKYMED 2 3.4 23:33:44 17° NNE 23:37:06 82° ESE 23:41:27 10° S
Cosmos 1697 Rocket 2.6 23:34:32 10° S 23:40:02 62° ESE 23:42:40 31° NE
Lacrosse 4 Rocket 4.1 23:39:19 10° WNW 23:40:37 11° NW 23:41:54 10° NNW
Helios 1A Rocket 3.9 23:42:21 24° SSE 23:42:21 24° SSE 23:44:00 10° S
Cosmos 1726 Rocket 3.6 23:36:56 10° S 23:41:30 61° E 23:43:29 32° NNE
Gbstr 26 Del rocket 3.0 23:39:04 10° SW 23:42:55 46° SE 23:43:00 46° SE
ARIANE 5 R/B 3.8 23:38:43 10° SSW 23:43:26 40° W 23:48:14 10° NNW
SPOT 1/Viking Rocket 3.5 23:38:32 10° SSE 23:43:44 88° WSW 23:48:59 10° NNW
Meteor 1-20 Rocket 4.4 23:38:26 10° NNW 23:43:53 72° W 23:49:17 10° S
NOAA 6 4.1 23:39:24 10° SE 23:44:17 48° ENE 23:49:12 10° N
Cosmos 1602 Rocket 4.4 23:41:31 10° NNW 23:45:47 50° W 23:50:00 10° SSW
PSLV R/B 3.8 23:45:15 10° SSE 23:50:13 46° NNE 23:53:13 10° N
USA 290 2.9 23:46:58 10° NNW 23:50:11 55° WSW 23:52:16 19° S
COSMO-SKYMED 1 2.3 23:49:30 56° NE 23:50:18 76° ESE 23:54:25 10° S
Meteor 2-20 4.4 23:44:57 10° S 23:51:00 62° E 23:56:01 15° NNE
